Weather History for KMDW - March, 2013

Change the Weather History Date:

Monday, March 4, 2013

  Actual Average Record
Temperature  
Mean Temperature 28 °F 34 °F  
Max Temperature 34 °F 42 °F 74 °F (1983)
Min Temperature 22 °F 27 °F -4 °F (2002)
Degree Days  
Heating Degree Days 37 31  
Month to date heating degree days 150 125  
Since 1 July heating degree days 4302 4636  
Cooling Degree Days 0 0  
Month to date cooling degree days 0 0  
Year to date cooling degree days 0 0  
Moisture  
Dew Point 19 °F    
Average Humidity 65    
Maximum Humidity 80    
Minimum Humidity 46    
Precipitation  
Precipitation T in 0.08 in 1.42 in (1985)
Month to date precipitation T 0.34  
Year to date precipitation 4.25 4.34  
Sea Level Pressure  
Sea Level Pressure 30.10 in    
Wind  
Wind Speed 7 mph (East)    
Max Wind Speed 14 mph    
Max Gust Speed -    
Visibility 10 miles    
Events Snow    
T = Trace of Precipitation, MM = Missing Value Source: NWS Daily Summary

Daily Weather History Graph

Daily Weather History Graph

Search for Another Location

Airport or City:

Trip Planner

Search our weather history database for the weather conditions in past years. The results will help you decide how hot, cold, wet, or windy it might be!

Date:

Astronomy

Mar. 04, 2013 Rise Set
Actual Time 6:20 AM CST 5:45 PM CST
Civil Twilight 5:52 AM CST 6:13 PM CST
Nautical Twilight 5:20 AM CST 6:45 PM CST
Astronomical Twilight 4:48 AM CST 7:17 PM CST
Moon 12:33 AM CST (3/4) 10:22 AM CST (3/4)
Length of Visible Light 12h 20m
Length of Day
11h 24m
Waning Gibbous, 52% of the Moon is Illuminated
Mar 4
Waning Gibbous
Mar 4
Last Quarter
Mar 11
New
Mar 19
First Quarter
Mar 27
Full

Hourly Weather History & Observations

Time (CST) Temp. Windchill Dew Point Humidity Pressure Visibility Wind Dir Wind Speed Gust Speed Precip Events Conditions
12:51 AM 24.1 °F - 16.0 °F 71% 30.15 in 10.0 mi Calm Calm - N/A   Scattered Clouds
1:51 AM 24.1 °F - 16.0 °F 71% 30.16 in 10.0 mi Calm Calm - N/A   Mostly Cloudy
2:51 AM 21.2 °F - 15.8 °F 80% 30.12 in 10.0 mi Calm Calm - N/A   Overcast
3:51 AM 24.1 °F - 16.0 °F 71% 30.16 in 10.0 mi Calm Calm - N/A   Overcast
4:51 AM 21.9 °F - 14.0 °F 72% 30.16 in 10.0 mi Calm Calm - N/A   Mostly Cloudy
5:51 AM 24.8 °F 19.1 °F 15.8 °F 69% 30.11 in 10.0 mi East 4.6 mph - N/A   Mostly Cloudy
6:51 AM 24.1 °F 17.0 °F 16.0 °F 71% 30.15 in 10.0 mi ESE 5.8 mph - N/A   Mostly Cloudy
7:51 AM 26.1 °F 20.5 °F 18.0 °F 71% 30.16 in 10.0 mi SE 4.6 mph - N/A   Mostly Cloudy
8:51 AM 28.9 °F 19.8 °F 19.0 °F 67% 30.15 in 10.0 mi SE 10.4 mph - N/A   Overcast
9:51 AM 30.9 °F 22.2 °F 19.0 °F 61% 30.14 in 10.0 mi East 10.4 mph - N/A   Overcast
10:51 AM 30.9 °F 20.7 °F 19.9 °F 64% 30.13 in 10.0 mi East 13.8 mph - N/A   Overcast
11:51 AM 30.9 °F 23.5 °F 19.0 °F 61% 30.12 in 10.0 mi East 8.1 mph - N/A   Overcast
12:51 PM 30.2 °F 21.9 °F 19.4 °F 64% 30.06 in 10.0 mi ENE 9.2 mph - N/A   Overcast
1:51 PM 30.9 °F 21.7 °F 19.9 °F 64% 30.08 in 10.0 mi ENE 11.5 mph - N/A   Overcast
2:51 PM 32.0 °F 23.0 °F 19.0 °F 59% 30.08 in 10.0 mi ENE 11.5 mph - N/A   Overcast
3:51 PM 32.0 °F 24.8 °F 19.0 °F 59% 30.07 in 10.0 mi ENE 8.1 mph - N/A   Overcast
4:51 PM 32.0 °F 23.0 °F 21.0 °F 64% 30.06 in 10.0 mi ENE 11.5 mph - 0.00 in   Overcast
5:51 PM 32.0 °F 22.1 °F 21.0 °F 64% 30.05 in 10.0 mi ENE 13.8 mph - N/A   Overcast
6:51 PM 33.1 °F 24.4 °F 23.0 °F 66% 30.06 in 10.0 mi ENE 11.5 mph - N/A   Overcast
7:51 PM 34.0 °F 26.6 °F 23.0 °F 64% 30.06 in 10.0 mi East 9.2 mph - 0.00 in Snow Light Snow
8:51 PM 33.8 °F 25.8 °F 21.2 °F 60% 30.04 in 10.0 mi East 10.4 mph - N/A   Overcast
9:51 PM 33.1 °F 23.9 °F 23.0 °F 66% 30.06 in 10.0 mi East 12.7 mph - N/A   Overcast
10:51 PM 33.1 °F 24.4 °F 24.1 °F 70% 30.05 in 10.0 mi East 11.5 mph - N/A   Overcast
11:51 PM 33.1 °F 23.4 °F 25.0 °F 72% 30.03 in 10.0 mi East 13.8 mph - N/A   Overcast